Richmond, VA

5:14 AM EDT on September 18, 2019 (GMT -0400)
Richmond International

Weather History for KRIC - August, 2019

Change the Weather History Date:

Monday, August 19, 2019

  Actual Average Record
Temperature  
Mean Temperature 87 °F 77 °F  
Max Temperature 99 °F 88 °F 99 °F (2019)
Min Temperature 74 °F 67 °F 53 °F (1930)
Degree Days  
Heating Degree Days 0 0  
Month to date heating degree days 0 0  
Since 1 June heating degree days 0 7  
Since 1 July heating degree days 0 0  
Cooling Degree Days 22 12  
Month to date cooling degree days 297 250  
Year to date cooling degree days 1477 1169  
Since 1 June cooling degree days 1148 1008  
Growing Degree Days 36 (Base 50)    
Moisture  
Dew Point 71 °F    
Average Humidity 68    
Maximum Humidity 94    
Minimum Humidity 42    
Precipitation  
Precipitation T in 0.15 in 3.62 in (1957)
Month to date precipitation 1.48 2.91  
Year to date precipitation 31.92 28.24  
Snow  
Snow 0.00 in 0.00 in 0.00 in (2002)
Month to date snowfall 0.0 0.0  
Since 1 July snowfall 0.0 0.0  
Snow Depth 0.00 in    
Sea Level Pressure  
Sea Level Pressure 30.01 in    
Wind  
Wind Speed 6 mph (South)    
Max Wind Speed 21 mph    
Max Gust Speed 29 mph    
Visibility 10 miles    
Events Thunderstorm    
T = Trace of Precipitation, MM = Missing Value Source: NWS Daily Summary

Daily Weather History Graph

Daily Weather History Graph

Search for Another Location

Airport or City:

Astronomy

Aug. 19, 2019 Rise Set
Actual Time 6:28 AM EDT 7:56 PM EDT
Civil Twilight 6:00 AM EDT 8:24 PM EDT
Nautical Twilight 5:27 AM EDT 8:57 PM EDT
Astronomical Twilight 4:52 AM EDT 9:32 PM EDT
Moon 10:21 PM EDT (8/19) 10:03 AM EDT (8/19)
Length of Visible Light 14h 23m
Length of Day
13h 28m
Waning Gibbous, 85% of the Moon is Illuminated
Aug 19
Waning Gibbous
Aug 23
Last Quarter
Aug 30
New
Sep 5
First Quarter
Sep 14
Full

Hourly Weather History & Observations

Time (EDT) Temp. Heat Index Dew Point Humidity Pressure Visibility Wind Dir Wind Speed Gust Speed Precip Events Conditions
12:54 AM 78.1 °F - 73.0 °F 84% 30.00 in 10.0 mi SSE 3.5 mph - N/A   Partly Cloudy
1:54 AM 77.0 °F - 73.0 °F 88% 29.99 in 10.0 mi SE 3.5 mph - N/A   Clear
2:54 AM 75.9 °F - 73.0 °F 91% 29.99 in 10.0 mi Calm Calm - N/A   Clear
3:54 AM 75.9 °F - 73.0 °F 91% 29.99 in 10.0 mi Calm Calm - N/A   Partly Cloudy
4:54 AM 75.0 °F - 73.0 °F 94% 30.00 in 10.0 mi Calm Calm - N/A   Partly Cloudy
5:54 AM 75.0 °F - 72.0 °F 90% 30.00 in 10.0 mi South 4.6 mph - N/A   Partly Cloudy
6:54 AM 75.0 °F - 72.0 °F 90% 30.02 in 10.0 mi South 3.5 mph - N/A   Partly Cloudy
7:54 AM 78.1 °F - 73.9 °F 87% 30.03 in 8.0 mi SSW 5.8 mph - N/A   Partly Cloudy
8:54 AM 82.0 °F 87.9 °F 73.9 °F 76% 30.03 in 10.0 mi SW 6.9 mph - N/A   Partly Cloudy
9:54 AM 87.1 °F 96.3 °F 75.0 °F 67% 30.03 in 10.0 mi South 3.5 mph - N/A   Partly Cloudy
10:54 AM 90.0 °F 101.3 °F 75.9 °F 63% 30.03 in 10.0 mi South 3.5 mph - N/A   Partly Cloudy
11:54 AM 93.0 °F 103.2 °F 73.9 °F 54% 30.03 in 10.0 mi Variable 6.9 mph - N/A   Scattered Clouds
12:54 PM 95.0 °F 102.5 °F 71.1 °F 46% 30.02 in 10.0 mi Variable 3.5 mph - N/A   Scattered Clouds
1:54 PM 97.0 °F 103.5 °F 70.0 °F 41% 30.01 in 10.0 mi South 11.5 mph - N/A   Mostly Cloudy
2:54 PM 97.0 °F 102.8 °F 69.1 °F 40% 29.99 in 10.0 mi South 6.9 mph - N/A   Mostly Cloudy
3:43 PM 96.1 °F 102.9 °F 70.0 °F 43% 29.97 in 10.0 mi West 9.2 mph - 0.00 in Thunderstorm Thunderstorm
3:54 PM 96.1 °F 102.9 °F 70.0 °F 43% 29.98 in 10.0 mi SW 4.6 mph - 0.00 in Thunderstorm Thunderstorm
4:31 PM 90.0 °F 96.9 °F 72.0 °F 55% 29.97 in 10.0 mi ESE 11.5 mph - N/A   Mostly Cloudy
4:54 PM 93.0 °F 100.7 °F 72.0 °F 50% 29.98 in 10.0 mi SE 15.0 mph - N/A Thunderstorm Thunderstorm
5:54 PM 88.0 °F 92.9 °F 70.0 °F 55% 29.98 in 10.0 mi SSE 12.7 mph - N/A   Mostly Cloudy
6:54 PM 86.0 °F 87.3 °F 64.0 °F 48% 29.97 in 10.0 mi South 10.4 mph - N/A   Mostly Cloudy
7:54 PM 84.9 °F 87.1 °F 66.0 °F 53% 30.00 in 10.0 mi Calm Calm - N/A   Mostly Cloudy
8:54 PM 82.0 °F 84.9 °F 68.0 °F 62% 30.03 in 10.0 mi Variable 3.5 mph - N/A   Overcast
9:54 PM 84.0 °F 87.0 °F 68.0 °F 58% 30.05 in 10.0 mi West 8.1 mph - N/A   Overcast
10:54 PM 79.0 °F - 70.0 °F 74% 30.05 in 10.0 mi South 8.1 mph - N/A   Overcast
11:54 PM 81.0 °F 84.1 °F 69.1 °F 67% 30.05 in 10.0 mi SSW 8.1 mph - N/A   Mostly Cloudy